OH78T EFHK-EFHK

Flight info

Callsign OH78T
Flight time 0h 10m
Altitude 1000
Route TURFI TURFI
Aircraft DHC2/L-SGRY/LB1

Departure

Time 2026-04-26 08:47
Airport Helsinki Vantaa Airport (EFHK)

Arrival

Time 2026-04-26 08:57
Airport Helsinki Vantaa Airport (EFHK)
Time Latitude Longitude Altitude Speed Heading
2026-04-26 08:32 60.30893 24.97815 158 ft 0 kts 245°
2026-04-26 08:40 60.30892 24.97814 131 ft 0 kts 239°
2026-04-26 08:40 60.30897 24.97855 158 ft 7 kts 36°
2026-04-26 08:40 60.30919 24.97920 158 ft 6 kts 78°
2026-04-26 08:40 60.30902 24.98012 158 ft 12 kts 89°
2026-04-26 08:41 60.30926 24.98157 158 ft 6 kts 68°
2026-04-26 08:41 60.30936 24.98201 158 ft 3 kts 73°
2026-04-26 08:41 60.30924 24.98252 158 ft 7 kts 163°
2026-04-26 08:41 60.30870 24.98291 157 ft 13 kts 153°
2026-04-26 08:42 60.30808 24.98348 157 ft 12 kts 164°
2026-04-26 08:42 60.30711 24.98433 157 ft 17 kts 153°
2026-04-26 08:42 60.30660 24.98573 157 ft 5 kts 93°
2026-04-26 08:42 60.30660 24.98575 156 ft 0 kts 90°
2026-04-26 08:44 60.30672 24.98661 157 ft 10 kts 63°
2026-04-26 08:44 60.30727 24.98762 159 ft 11 kts 15°
2026-04-26 08:45 60.30792 24.98738 159 ft 8 kts 335°
2026-04-26 08:45 60.30795 24.98736 159 ft 0 kts 335°
2026-04-26 08:45 60.30796 24.98735 159 ft 2 kts 335°
2026-04-26 08:45 60.30859 24.98673 157 ft 17 kts 335°
2026-04-26 08:46 60.31085 24.98445 159 ft 60 kts 333°
2026-04-26 08:46 60.31510 24.98004 287 ft 72 kts 332°
2026-04-26 08:46 60.31996 24.97620 476 ft 81 kts 343°
2026-04-26 08:46 60.32591 24.97563 635 ft 93 kts
2026-04-26 08:47 60.33214 24.98111 752 ft 99 kts 16°
2026-04-26 08:47 60.33829 24.98670 882 ft 91 kts 13°
2026-04-26 08:47 60.34381 24.99183 920 ft 87 kts 12°
2026-04-26 08:47 60.34933 24.99706 908 ft 87 kts 13°
2026-04-26 08:48 60.35476 25.00209 907 ft 87 kts 12°
2026-04-26 08:48 60.36031 25.00706 912 ft 89 kts 13°
2026-04-26 08:48 60.36590 25.01108 913 ft 84 kts
2026-04-26 08:48 60.37172 25.01194 911 ft 84 kts 356°
2026-04-26 08:49 60.37747 25.01176 922 ft 82 kts 354°
2026-04-26 08:49 60.38320 25.01165 927 ft 82 kts 354°
2026-04-26 08:49 60.38909 25.01138 935 ft 90 kts 354°
2026-04-26 08:49 60.39542 25.01173 930 ft 93 kts 358°
2026-04-26 08:50 60.40170 25.01230 926 ft 88 kts 357°
2026-04-26 08:50 60.40770 25.01300 912 ft 85 kts 357°
2026-04-26 08:50 60.41341 25.01373 914 ft 80 kts 357°
2026-04-26 08:50 60.41897 25.01451 912 ft 83 kts 356°
2026-04-26 08:51 60.43034 25.01651 915 ft 82 kts
2026-04-26 08:51 60.43604 25.01808 920 ft 82 kts
2026-04-26 08:51 60.44155 25.02115 915 ft 83 kts 12°
2026-04-26 08:52 60.44691 25.02554 908 ft 83 kts
2026-04-26 08:52 60.45220 25.03047 913 ft 85 kts 15°
2026-04-26 08:52 60.45742 25.03619 840 ft 87 kts 14°
2026-04-26 08:52 60.46238 25.04380 694 ft 102 kts 45°
2026-04-26 08:53 60.46168 25.05774 510 ft 105 kts 108°
2026-04-26 08:53 60.45917 25.07018 345 ft 97 kts 90°
2026-04-26 08:53 60.45705 25.08339 439 ft 100 kts 98°
2026-04-26 08:53 60.45442 25.09574 564 ft 90 kts 95°
2026-04-26 08:54 60.45207 25.10734 667 ft 86 kts 90°
2026-04-26 08:54 60.45205 25.11915 798 ft 90 kts 73°
2026-04-26 08:54 60.45183 25.13201 967 ft 88 kts 69°
2026-04-26 08:54 60.45027 25.14354 814 ft 107 kts 115°
2026-04-26 08:55 60.44281 25.14786 818 ft 106 kts 212°
2026-04-26 08:55 60.43631 25.14394 878 ft 100 kts 205°
2026-04-26 08:55 60.42973 25.13871 970 ft 108 kts 214°
2026-04-26 08:55 60.42375 25.13015 982 ft 107 kts 234°
2026-04-26 08:56 60.41998 25.11935 949 ft 80 kts 287°
2026-04-26 08:56 60.42089 25.10914 967 ft 72 kts 303°
2026-04-26 08:56 60.42237 25.09957 964 ft 72 kts 304°
2026-04-26 08:56 60.42387 25.09032 958 ft 66 kts 308°
2026-04-26 08:57 60.42560 25.08159 948 ft 67 kts 307°
2026-04-26 08:57 60.42742 25.07331 953 ft 66 kts 310°
2026-04-26 08:57 60.42952 25.06620 839 ft 47 kts 323°
2026-04-26 08:57 60.43240 25.06235 690 ft 50 kts 333°
2026-04-26 08:58 60.43549 25.05885 680 ft 53 kts 334°
2026-04-26 08:58 60.43856 25.05615 461 ft 54 kts 351°
2026-04-26 08:58 60.44161 25.06139 301 ft 72 kts 34°
2026-04-26 08:58 60.44477 25.06649 199 ft 50 kts
2026-04-26 08:59 60.44779 25.06846 144 ft 39 kts 359°
2026-04-26 08:59 60.44938 25.06878 134 ft 12 kts 338°
2026-04-26 08:59 60.44984 25.06836 134 ft 4 kts 332°
2026-04-26 08:59 60.45004 25.06812 134 ft 3 kts 340°
2026-04-26 09:00 60.45054 25.06813 134 ft 20 kts 18°
2026-04-26 09:00 60.45291 25.06857 204 ft 48 kts
2026-04-26 09:00 60.45600 25.07174 429 ft 56 kts 18°
2026-04-26 09:00 60.45939 25.07467 695 ft 52 kts 13°
2026-04-26 09:01 60.46275 25.07688 931 ft 50 kts 350°
2026-04-26 09:01 60.46489 25.07021 1094 ft 71 kts 303°
2026-04-26 09:01 60.46539 25.06069 1016 ft 63 kts 299°
2026-04-26 09:01 60.46582 25.05214 936 ft 60 kts 296°
2026-04-26 09:02 60.46558 25.04372 928 ft 65 kts 289°
2026-04-26 09:02 60.46580 25.03378 1008 ft 70 kts 293°
2026-04-26 09:02 60.46583 25.02507 985 ft 56 kts 295°
2026-04-26 09:02 60.46593 25.01644 1002 ft 64 kts 296°
2026-04-26 09:03 60.46619 25.00706 915 ft 70 kts 292°
2026-04-26 09:03 60.46270 24.99708 865 ft 116 kts 214°
2026-04-26 09:03 60.45500 24.99940 748 ft 115 kts 146°
2026-04-26 09:03 60.44761 25.00385 593 ft 112 kts 181°
2026-04-26 09:04 60.44002 25.00596 553 ft 122 kts 173°
2026-04-26 09:04 60.43207 25.00818 890 ft 118 kts 176°
2026-04-26 09:04 60.42374 25.01033 933 ft 124 kts 176°
2026-04-26 09:04 60.41508 25.01199 938 ft 126 kts 182°
2026-04-26 09:05 60.40633 25.01222 849 ft 120 kts 185°
2026-04-26 09:05 60.39823 25.01236 753 ft 113 kts 188°
2026-04-26 09:05 60.39071 25.01363 702 ft 106 kts 166°
2026-04-26 09:05 60.38342 25.01735 632 ft 113 kts 173°
2026-04-26 09:06 60.37591 25.01982 696 ft 107 kts 178°
2026-04-26 09:06 60.36860 25.02107 729 ft 104 kts 182°
2026-04-26 09:06 60.36136 25.02157 756 ft 108 kts 184°
2026-04-26 09:06 60.35405 25.02122 738 ft 105 kts 193°
2026-04-26 09:07 60.34667 25.01953 753 ft 106 kts 195°
2026-04-26 09:07 60.33929 25.01833 757 ft 107 kts 188°
2026-04-26 09:07 60.33196 25.01849 788 ft 106 kts 175°
2026-04-26 09:07 60.32518 25.02279 680 ft 99 kts 149°
2026-04-26 09:08 60.31881 25.02980 748 ft 107 kts 145°
2026-04-26 09:08 60.31254 25.03752 768 ft 102 kts 141°
2026-04-26 09:08 60.30642 25.04573 819 ft 108 kts 137°
2026-04-26 09:08 60.30253 25.05667 883 ft 85 kts 80°
2026-04-26 09:09 60.30332 25.06579 920 ft 54 kts 22°
2026-04-26 09:09 60.30587 25.06463 922 ft 59 kts 302°
2026-04-26 09:09 60.30172 25.05827 809 ft 99 kts 187°
2026-04-26 09:09 60.29508 25.06173 728 ft 100 kts 177°
2026-04-26 09:10 60.28892 25.05784 691 ft 88 kts 222°
2026-04-26 09:10 60.28461 25.05022 743 ft 80 kts 264°
2026-04-26 09:10 60.28272 25.03956 842 ft 81 kts 277°
2026-04-26 09:10 60.28306 25.02859 830 ft 81 kts 299°
2026-04-26 09:11 60.28552 25.01918 872 ft 75 kts 316°
2026-04-26 09:11 60.28902 25.01105 822 ft 78 kts 323°
2026-04-26 09:11 60.29324 25.00425 706 ft 80 kts 327°
2026-04-26 09:11 60.29805 24.99795 553 ft 85 kts 329°
2026-04-26 09:12 60.30334 24.99214 337 ft 86 kts 331°
2026-04-26 09:12 60.30837 24.98692 178 ft 65 kts 331°
2026-04-26 09:12 60.31104 24.98420 159 ft 37 kts 333°
2026-04-26 09:12 60.31339 24.98176 160 ft 43 kts 331°
2026-04-26 09:13 60.31416 24.97885 160 ft 0 kts 249°
2026-04-26 09:15 60.31415 24.97882 160 ft 5 kts 247°
2026-04-26 09:15 60.31373 24.97816 160 ft 6 kts 166°
2026-04-26 09:15 60.31297 24.97921 159 ft 5 kts 167°
2026-04-26 09:15 60.31255 24.97931 159 ft 0 kts 156°
2026-04-26 09:16 60.31216 24.97972 159 ft 4 kts 92°
2026-04-26 09:16 60.31192 24.97988 159 ft 6 kts 155°
2026-04-26 09:16 60.31115 24.98066 159 ft 19 kts 158°
2026-04-26 09:16 60.30997 24.98190 158 ft 7 kts 156°
2026-04-26 09:17 60.30976 24.98207 158 ft 10 kts 164°
2026-04-26 09:17 60.30907 24.98099 158 ft 12 kts 199°
2026-04-26 09:17 60.30863 24.98070 158 ft 0 kts 238°